North Myrtle Beach, SC

8:28 AM EDT on May 27, 2018 (GMT -0400)
Grand Strand

Weather History for KCRE - May, 2014

Change the Weather History Date:

Tuesday, May 20, 2014

  Actual Average Record
Temperature  
Mean Temperature 62 °F 71 °F  
Max Temperature 74 °F 80 °F 93 °F (1949)
Min Temperature 50 °F 62 °F 46 °F (2002)
Degree Days  
Heating Degree Days 3 0  
Month to date heating degree days 9 23  
Since 1 July heating degree days 2586 2446  
Cooling Degree Days 0 6  
Month to date cooling degree days 125 88  
Year to date cooling degree days 167 130  
Growing Degree Days 12 (Base 50)    
Moisture  
Dew Point 52 °F    
Average Humidity 70    
Maximum Humidity 96    
Minimum Humidity 44    
Precipitation  
Precipitation 0.00 in 0.10 in 1.48 in (2011)
Month to date precipitation 1.05 2.05  
Year to date precipitation 12.44 16.04  
Sea Level Pressure  
Sea Level Pressure 30.24 in    
Wind  
Wind Speed 8 mph (SSW)    
Max Wind Speed 18 mph    
Max Gust Speed 22 mph    
Visibility 10 miles    
Events      
T = Trace of Precipitation, MM = Missing Value Source: NWS Daily Summary

Daily Weather History Graph

Daily Weather History Graph

Search for Another Location

Airport or City:

Astronomy

May. 20, 2014 Rise Set
Actual Time 6:10 AM EDT 8:12 PM EDT
Civil Twilight 5:42 AM EDT 8:40 PM EDT
Nautical Twilight 5:08 AM EDT 9:14 PM EDT
Astronomical Twilight 4:32 AM EDT 9:51 PM EDT
Moon 12:47 AM EDT (5/20) 12:07 PM EDT (5/20)
Length of Visible Light 14h 57m
Length of Day
14h 02m
Waning Gibbous, 60% of the Moon is Illuminated
May 20
Waning Gibbous
May 21
Last Quarter
May 28
New
Jun 5
First Quarter
Jun 13
Full

Hourly Weather History & Observations

Time (EDT) Temp. Dew Point Humidity Pressure Visibility Wind Dir Wind Speed Gust Speed Precip Events Conditions
12:53 AM 54.0 °F 51.1 °F 90% 30.25 in 10.0 mi Calm Calm - N/A   Clear
1:53 AM 52.0 °F 50.0 °F 93% 30.24 in 10.0 mi Calm Calm - N/A   Clear
2:53 AM 52.0 °F 50.0 °F 93% 30.24 in 10.0 mi Calm Calm - N/A   Clear
3:53 AM 51.1 °F 50.0 °F 96% 30.24 in 8.0 mi Calm Calm - N/A   Clear
5:53 AM 50.0 °F 48.9 °F 96% 30.26 in 5.0 mi Calm Calm - N/A   Clear
6:53 AM 51.1 °F 50.0 °F 96% 30.28 in 6.0 mi Calm Calm - N/A   Clear
7:53 AM 60.1 °F 55.0 °F 83% 30.30 in 10.0 mi Calm Calm - N/A   Clear
8:53 AM 69.1 °F 53.1 °F 57% 30.31 in 10.0 mi Calm Calm - N/A   Clear
9:53 AM 70.0 °F 48.0 °F 46% 30.31 in 10.0 mi Variable 4.6 mph - N/A   Clear
10:53 AM 71.1 °F 48.9 °F 45% 30.30 in 10.0 mi SSE 10.4 mph - N/A   Clear
11:53 AM 72.0 °F 51.1 °F 48% 30.30 in 10.0 mi SSE 9.2 mph - N/A   Clear
12:53 PM 73.0 °F 52.0 °F 48% 30.27 in 10.0 mi SSE 10.4 mph - N/A   Clear
1:53 PM 72.0 °F 51.1 °F 48% 30.26 in 10.0 mi South 10.4 mph - N/A   Clear
2:53 PM 73.0 °F 50.0 °F 44% 30.24 in 10.0 mi South 13.8 mph - N/A   Clear
3:53 PM 73.0 °F 50.0 °F 44% 30.22 in 10.0 mi South 13.8 mph - N/A   Clear
5:53 PM 72.0 °F 53.1 °F 51% 30.20 in 10.0 mi SSW 15.0 mph - N/A   Clear
6:53 PM 71.1 °F 53.1 °F 53% 30.19 in 10.0 mi SSW 10.4 mph - N/A   Clear
7:53 PM 70.0 °F 53.1 °F 55% 30.18 in 10.0 mi SSW 12.7 mph - N/A   Clear
8:53 PM 69.1 °F 53.1 °F 57% 30.17 in 10.0 mi SW 15.0 mph - N/A   Clear
9:53 PM 69.1 °F 54.0 °F 58% 30.18 in 10.0 mi SSW 13.8 mph - N/A   Clear
10:53 PM 69.1 °F 54.0 °F 58% 30.17 in 10.0 mi SSW 13.8 mph - N/A   Clear
11:53 PM 68.0 °F 55.0 °F 63% 30.17 in 10.0 mi WSW 9.2 mph - N/A   Clear